Simultaneous Nadir Overpasses (SNOs) Predictions

Prediction of SNOs between METOP-B and TERRA Satellite Orbit:

Table of predicted SNOs for the next 14.0 days since TLE Epoch: 10/5/2024
Index Date (METOP-B) Time (METOP-B) Lat,Lon (METOP-B) SZA (METOP-B ) Date (TERRA) Time (TERRA) Lat,Lon (TERRA) SZA (TERRA ) Distance(km) Time Diff (sec)
1 10/06/2024 03:00:02 79.74, 150.86 85.50 10/06/2024 03:00:01 79.74, 150.94 85.51 1.62 1
2 10/08/2024 16:39:40 -79.50, 123.97 93.85 10/08/2024 16:40:48 -79.51, 124.10 93.82 2.73 68
3 10/08/2024 17:30:13 79.74, -66.70 86.51 10/08/2024 17:30:01 79.74, -66.63 86.51 1.42 12
4 10/11/2024 07:09:49 -79.54, -93.25 92.80 10/11/2024 07:10:44 -79.55, -93.14 92.77 2.38 55
5 10/11/2024 08:00:22 79.78, 76.07 87.55 10/11/2024 07:59:57 79.78, 76.11 87.55 0.88 25
6 10/13/2024 21:39:57 -79.59, 49.58 91.75 10/13/2024 21:40:37 -79.60, 49.65 91.73 1.59 40
7 10/13/2024 22:30:30 79.82,-141.10 88.60 10/13/2024 22:29:50 79.82,-141.10 88.59 0.05 40
8 10/16/2024 12:10:03 -79.64,-167.54 90.71 10/16/2024 12:10:26 -79.64,-167.53 90.70 0.34 23
9 10/16/2024 13:00:36 79.87, 1.78 89.64 10/16/2024 12:59:39 79.87, 1.72 89.61 1.15 57
10 10/19/2024 02:40:09 -79.70, -24.60 89.68 10/19/2024 02:40:13 -79.70, -24.66 89.69 1.38 4



Historial Predications of SNOs between METOP-B and TERRA
